Gillette, WY

6:24 AM MST on December 14, 2017 (GMT -0700)
Gillette-Campbell County

Weather History for KGCC - November, 2014

Change the Weather History Date:

Tuesday, November 25, 2014

  Actual Average Record
Temperature  
Mean Temperature 30 °F 28 °F  
Max Temperature 34 °F 39 °F 66 °F (1960)
Min Temperature 25 °F 17 °F -15 °F (1993)
Degree Days  
Heating Degree Days 35 37  
Month to date heating degree days 887 775  
Since 1 July heating degree days 1601 1684  
Cooling Degree Days 0 0  
Month to date cooling degree days 0 0  
Year to date cooling degree days 412 502  
Moisture  
Dew Point 26 °F    
Average Humidity 71    
Maximum Humidity 92    
Minimum Humidity 49    
Precipitation  
Precipitation 0.22 in 0.02 in 0.48 in (1975)
Month to date precipitation 0.67 0.48  
Year to date precipitation 17.81 13.42  
Sea Level Pressure  
Sea Level Pressure 29.92 in    
Wind  
Wind Speed 17 mph (WNW)    
Max Wind Speed 35 mph    
Max Gust Speed 41 mph    
Visibility 3 miles    
Events Fog , Snow    
T = Trace of Precipitation, MM = Missing Value Source: NWS Daily Summary

Daily Weather History Graph

Daily Weather History Graph

Search for Another Location

Airport or City:

Trip Planner

Search our weather history database for the weather conditions in past years. The results will help you decide how hot, cold, wet, or windy it might be!

Date:

Astronomy

Nov. 25, 2014 Rise Set
Actual Time 7:10 AM MST 4:27 PM MST
Civil Twilight 6:38 AM MST 4:59 PM MST
Nautical Twilight 6:02 AM MST 5:35 PM MST
Astronomical Twilight 5:28 AM MST 6:09 PM MST
Moon 9:56 AM MST (11/25) 7:57 PM MST (11/25)
Length of Visible Light 10h 20m
Length of Day
9h 16m
Waxing Crescent, 13% of the Moon is Illuminated
Nov 25
Waxing Crescent
Nov 29
First Quarter
Dec 6
Full
Dec 14
Last Quarter
Dec 21
New

Hourly Weather History & Observations

Time (MST) Temp. Windchill Dew Point Humidity Pressure Visibility Wind Dir Wind Speed Gust Speed Precip Events Conditions
12:53 AM 27.0 °F 15.6 °F 16.0 °F 63% 30.05 in 10.0 mi SW 13.8 mph - N/A   Clear
1:53 AM 28.0 °F 18.1 °F 16.0 °F 61% 30.02 in 10.0 mi SSW 11.5 mph - N/A   Clear
2:53 AM 28.9 °F 19.8 °F 16.0 °F 58% 29.96 in 10.0 mi SW 10.4 mph - N/A   Overcast
3:53 AM 30.9 °F 19.1 °F 14.0 °F 50% 29.90 in 10.0 mi SSW 18.4 mph 26.5 mph N/A   Clear
4:53 AM 30.9 °F 19.4 °F 14.0 °F 50% 29.88 in 10.0 mi SW 17.3 mph - N/A   Partly Cloudy
5:53 AM 30.9 °F 19.8 °F 15.1 °F 52% 29.88 in 10.0 mi WSW 16.1 mph - N/A   Overcast
6:53 AM 28.9 °F 18.6 °F 23.0 °F 78% 29.91 in 3.0 mi WSW 12.7 mph - 0.00 in Snow Light Snow
6:55 AM 28.9 °F 19.2 °F 23.0 °F 78% 29.82 in 2.5 mi WSW 11.5 mph - 0.00 in Snow Light Snow
7:04 AM 28.0 °F 19.3 °F 24.1 °F 85% 29.81 in 1.2 mi WSW 9.2 mph - 0.00 in Snow Light Snow
7:53 AM 28.9 °F 21.1 °F 26.1 °F 89% 29.90 in 0.8 mi SW 8.1 mph - 0.02 in Snow Light Snow
8:08 AM 28.9 °F 19.8 °F 26.1 °F 89% 29.81 in 1.0 mi WSW 10.4 mph - 0.01 in Snow Light Snow
8:25 AM 30.0 °F 22.4 °F 27.0 °F 88% 29.81 in 0.8 mi WSW 8.1 mph - 0.02 in Snow Light Snow
8:29 AM 30.0 °F 21.1 °F 27.0 °F 88% 29.81 in 0.5 mi West 10.4 mph - 0.02 in Fog , Snow Snow
8:53 AM 30.0 °F 22.4 °F 28.0 °F 92% 29.90 in 0.8 mi WSW 8.1 mph - 0.04 in Snow Light Snow
8:59 AM 30.2 °F 21.9 °F 28.4 °F 93% 29.81 in 1.0 mi WSW 9.2 mph - N/A Snow Light Snow
9:35 AM 32.0 °F 24.8 °F 28.9 °F 88% 29.81 in 3.0 mi West 8.1 mph - 0.01 in Snow Light Snow
9:53 AM 32.0 °F 24.2 °F 28.9 °F 88% 29.90 in 1.8 mi WSW 9.2 mph - 0.01 in Snow Light Snow
10:01 AM 32.0 °F 23.6 °F 28.9 °F 88% 29.81 in 2.5 mi West 10.4 mph - 0.00 in Snow Light Snow
10:08 AM 32.0 °F 23.0 °F 28.9 °F 88% 29.81 in 4.0 mi WSW 11.5 mph - 0.00 in Snow Light Snow
10:53 AM 33.1 °F 23.0 °F 30.0 °F 89% 29.89 in 6.0 mi West 15.0 mph - 0.00 in   Overcast
11:37 AM 34.0 °F 24.2 °F 30.9 °F 89% 29.81 in 2.0 mi West 15.0 mph - 0.00 in Snow Light Snow
11:45 AM 33.1 °F 23.0 °F 30.9 °F 92% 29.81 in 1.2 mi WNW 15.0 mph - 0.00 in Snow Light Snow
11:53 AM 33.1 °F 23.0 °F 30.9 °F 92% 29.89 in 1.0 mi WNW 15.0 mph - 0.01 in Snow Light Snow
12:00 PM 33.1 °F 22.6 °F 30.9 °F 92% 29.81 in 0.8 mi WNW 16.1 mph - 0.00 in Snow Light Snow
12:07 PM 33.1 °F 23.9 °F 30.9 °F 92% 29.82 in 1.2 mi WNW 12.7 mph - 0.00 in Snow Light Snow
12:12 PM 33.1 °F 24.4 °F 30.9 °F 92% 29.82 in 1.0 mi WNW 11.5 mph - 0.01 in Snow Light Snow
12:25 PM 33.1 °F 23.9 °F 30.9 °F 92% 29.81 in 1.0 mi WNW 12.7 mph - 0.01 in Snow Light Snow
12:35 PM 33.1 °F 23.0 °F 30.9 °F 92% 29.82 in 1.0 mi WNW 15.0 mph - 0.02 in Snow Light Snow
12:53 PM 33.1 °F 20.9 °F 30.0 °F 89% 29.91 in 1.2 mi WNW 21.9 mph 28.8 mph 0.02 in Snow Light Snow
1:12 PM 33.1 °F 21.9 °F 30.0 °F 89% 29.83 in 0.8 mi WNW 18.4 mph 26.5 mph 0.00 in Snow Light Snow
1:24 PM 32.0 °F 21.2 °F 30.9 °F 96% 29.85 in 0.5 mi NW 16.1 mph - 0.01 in Fog , Snow Snow
1:53 PM 32.0 °F 20.1 °F 30.0 °F 92% 29.94 in 0.5 mi NW 19.6 mph - 0.03 in Fog , Snow Light Snow
2:14 PM 32.0 °F 21.6 °F 30.9 °F 96% 29.87 in 0.5 mi NW 15.0 mph - 0.02 in Fog , Snow Light Snow
2:19 PM 32.0 °F 20.8 °F 30.0 °F 92% 29.86 in 1.0 mi NW 17.3 mph 24.2 mph 0.02 in Snow Light Snow
2:35 PM 30.2 °F 17.8 °F 28.4 °F 93% 29.88 in 1.5 mi NNW 19.6 mph 25.3 mph N/A Snow Light Snow
2:40 PM 30.9 °F 17.8 °F 28.9 °F 92% 29.88 in 0.8 mi NNW 23.0 mph 26.5 mph 0.02 in Snow Light Snow
2:45 PM 30.9 °F 18.7 °F 28.9 °F 92% 29.89 in 0.5 mi NNW 19.6 mph - 0.03 in Fog , Snow Snow
2:53 PM 30.9 °F 19.1 °F 28.9 °F 92% 29.97 in 0.2 mi NNW 18.4 mph 28.8 mph 0.04 in Fog , Snow Snow
2:59 PM 30.9 °F 19.1 °F 28.9 °F 92% 29.89 in 0.8 mi NNW 18.4 mph - 0.00 in Snow Light Snow
3:07 PM 30.9 °F 19.4 °F 28.9 °F 92% 29.89 in 0.8 mi NNW 17.3 mph - 0.00 in Snow Light Snow
3:34 PM 30.0 °F 18.3 °F 28.9 °F 96% 29.91 in 0.8 mi NNW 17.3 mph - 0.01 in Snow Light Snow
3:41 PM 30.0 °F 20.0 °F 28.9 °F 96% 29.91 in 0.5 mi NW 12.7 mph - 0.01 in Fog , Snow Snow
3:47 PM 30.2 °F 20.8 °F 28.4 °F 93% 29.92 in 1.0 mi NW 11.5 mph - 0.02 in Snow Light Snow
3:53 PM 30.9 °F 21.2 °F 28.9 °F 92% 30.00 in 2.0 mi NW 12.7 mph - 0.02 in Snow Light Snow
4:04 PM 30.9 °F 19.4 °F 28.0 °F 89% 29.93 in 1.0 mi NW 17.3 mph - 0.00 in Snow Light Snow
4:38 PM 30.0 °F 17.9 °F 28.9 °F 96% 29.95 in 0.8 mi NNW 18.4 mph - 0.01 in Snow Light Snow
4:53 PM 28.9 °F 15.1 °F 26.1 °F 89% 30.05 in 0.8 mi NNW 23.0 mph 31.1 mph 0.02 in Snow Light Snow
5:02 PM 28.0 °F 14.3 °F 26.1 °F 92% 29.96 in 1.0 mi NW 21.9 mph 32.2 mph 0.00 in Snow Light Snow
5:08 PM 28.0 °F 14.6 °F 25.0 °F 88% 29.96 in 2.0 mi NW 20.7 mph 31.1 mph 0.01 in Snow Light Snow
5:15 PM 28.9 °F 14.8 °F 24.1 °F 82% 29.97 in 8.0 mi NW 24.2 mph 31.1 mph 0.01 in   Overcast
5:25 PM 28.0 °F 14.3 °F 25.0 °F 88% 29.97 in 1.8 mi NW 21.9 mph 32.2 mph 0.01 in Snow Light Snow
5:38 PM 28.0 °F 14.9 °F 25.0 °F 88% 29.98 in 2.5 mi NW 19.6 mph 28.8 mph 0.01 in Snow Light Snow
5:53 PM 28.0 °F 15.3 °F 25.0 °F 88% 30.07 in 2.0 mi WNW 18.4 mph - 0.01 in Snow Light Snow
6:02 PM 28.0 °F 14.9 °F 25.0 °F 88% 29.98 in 2.0 mi WNW 19.6 mph - 0.00 in Snow Light Snow
6:13 PM 28.0 °F 13.9 °F 25.0 °F 88% 29.98 in 5.0 mi WNW 23.0 mph 29.9 mph 0.00 in   Overcast
6:53 PM 28.0 °F 13.3 °F 24.1 °F 85% 30.08 in 10.0 mi WNW 25.3 mph 34.5 mph 0.00 in   Overcast
7:53 PM 28.0 °F 13.6 °F 24.1 °F 85% 30.11 in 10.0 mi NW 24.2 mph 33.4 mph N/A   Overcast
8:53 PM 28.0 °F 14.3 °F 24.1 °F 85% 30.13 in 10.0 mi NW 21.9 mph 34.5 mph N/A   Overcast
9:53 PM 27.0 °F 13.5 °F 24.1 °F 89% 30.17 in 10.0 mi NW 19.6 mph - N/A   Overcast
10:02 PM 27.0 °F 13.9 °F 24.1 °F 89% 30.08 in 10.0 mi NW 18.4 mph - N/A   Overcast
10:53 PM 27.0 °F 13.5 °F 24.1 °F 89% 30.18 in 10.0 mi NW 19.6 mph - N/A   Overcast
11:53 PM 26.1 °F 14.5 °F 23.0 °F 88% 30.21 in 10.0 mi NW 13.8 mph - N/A   Overcast